Location: �quirre
(50.4736°N, 2.2351°E)
Time: 05:08:18
(UTC+00:00)

CZ-4C R/B - Pass Details

Date: 07 August 2020
Orbit: 465 x 635 km, 98.0° (Epoch: 19 September)

Event Time Altitude Azimuth Distance (km) Brightness Sun altitude
Exits shadow 01:04:26 36° 103° (ESE) 760 4.0 -21.6°
Maximum altitude 01:05:09 42° 69° (ENE) 689 4.0 -21.5°
Drops below altitude 10° 01:08:31 10° 358° (N) 1,663 6.8 -21.4°
Sets 01:10:40 0° 352° (N) 2,566 7.8 -21.3°
